Theta_e
333 336 338 338 339 339 338 338 338 338 338 337 337 337 336 334 333 334 334 333 332 331 329 328 327 326 325 324 324 325 325 325 325 325 327 329 331 331 330 329 328 327 326 324 322 321 320 320 320 321 323 326
330 332 335 335 335 336 337 336 336 335 335 335 334 333 331 331 332 333 332 331 330 330 328 327 326 325 324 324 323 324 324 324 324 325 327 328 329 329 327 327 326 324 323 322 320 319 318 318 319 320 322 325
336 328 330 331 332 332 333 333 333 332 332 331 329 328 328 328 329 329 329 328 328 327 326 325 324 324 323 323 324 324 323 323 323 325 326 327 327 326 326 325 324 322 321 320 318 317 317 317 318 320 323 326
339 329 327 328 328 329 329 329 329 326 324 324 324 324 325 325 327 327 327 325 325 323 322 322 321 321 322 323 323 323 322 322 322 325 325 325 325 324 323 322 320 319 318 318 316 315 316 316 318 323 324 325
339 337 327 327 326 326 326 326 324 322 321 322 321 323 322 323 326 325 324 322 322 321 321 319 318 319 321 322 322 321 321 322 323 323 322 321 320 319 317 316 315 315 315 314 314 314 314 316 321 322 323 323
339 338 333 338 336 334 330 325 323 326 328 321 327 320 323 323 321 321 321 320 316 319 318 318 316 317 319 319 320 320 320 321 321 320 318 317 315 313 313 314 316 313 311 311 311 312 313 316 317 318 319 321
337 334 337 337 335 334 327 326 328 329 328 329 326 324 322 319 318 318 318 319 318 317 315 316 314 315 317 318 318 318 317 317 316 315 314 313 312 310 311 313 313 314 313 311 311 311 312 312 312 313 315 317
335 334 335 334 333 331 330 328 327 327 327 327 326 323 320 318 318 316 314 308 307 308 312 311 309 309 309 309 310 310 309 310 310 310 310 309 308 309 310 310 309 309 310 309 309 310 309 309 309 310 311 313
333 334 333 332 330 328 329 326 324 323 323 322 321 319 317 315 314 313 311 311 309 308 307 308 308 306 307 306 305 306 304 304 305 306 306 306 307 308 309 308 308 307 307 306 306 307 306 306 307 307 308 309
332 333 331 330 330 329 327 326 324 322 321 320 319 317 315 314 313 311 309 308 306 305 304 304 303 304 303 304 304 305 305 305 305 305 305 306 306 306 306 306 306 306 305 305 304 305 305 305 305 305 305 307
332 332 333 330 328 326 326 325 323 321 321 319 317 316 315 313 311 310 307 305 305 303 302 301 301 301 302 302 302 303 303 304 303 303 303 303 303 304 304 303 303 303 303 303 303 303 303 303 303 303 303 304
327 328 329 327 325 326 322 321 321 322 322 320 317 315 313 311 310 307 304 304 303 302 301 301 301 301 301 301 301 302 302 301 302 302 302 302 302 301 301 301 301 301 301 301 302 302 302 302 302 301 301 303
327 328 327 324 325 326 320 323 322 322 322 321 318 315 313 310 308 307 304 303 302 301 301 302 301 300 300 301 301 302 301 302 301 301 301 301 302 302 301 300 300 300 300 300 301 300 301 301 300 301 301 301
325 327 325 325 325 324 320 324 321 321 320 321 319 316 313 311 309 307 304 302 302 302 302 302 302 300 300 300 301 301 301 301 301 300 300 300 300 300 300 300 299 299 299 299 300 300 300 299 299 299 299 299
321 320 321 321 322 321 321 320 318 319 320 319 319 317 315 313 311 309 306 304 303 303 302 302 302 301 301 300 301 301 301 301 301 300 300 300 298 298 298 298 299 298 298 298 299 299 299 298 298 298 298 298
311 311 311 311 313 314 315 315 315 315 314 314 317 318 317 315 313 311 307 306 304 303 302 302 302 301 301 300 301 301 301 301 301 300 301 301 300 300 299 299 299 299 298 297 297 298 297 298 297 296 296 296
301 301 302 304 305 307 308 309 307 307 309 309 308 310 312 312 311 309 307 305 304 303 303 302 302 302 302 301 301 302 302 301 301 299 298 298 298 298 298 298 298 299 298 297 297 297 296 296 295 295 295 294
298 296 296 297 298 300 301 301 300 300 302 303 303 304 304 306 307 305 304 303 302 302 302 302 301 300 299 299 300 299 297 297 299 298 296 295 296 296 297 296 296 296 296 295 295 295 295 295 294 293 292 291
296 296 294 292 292 293 295 295 295 295 296 298 297 297 296 297 300 302 302 301 300 300 300 298 298 299 298 298 299 298 298 298 298 298 296 295 295 295 296 296 296 296 295 294 294 294 294 292 292 291 290 290
293 291 291 291 289 289 290 290 290 291 292 293 294 294 293 293 293 295 295 295 296 295 295 295 294 294 296 297 298 298 298 298 297 297 297 297 296 294 295 295 294 295 294 293 292 293 292 291 291 289 289 288
291 291 290 287 287 286 286 286 287 288 288 288 289 290 291 290 290 290 290 290 291 291 290 289 289 289 291 293 295 295 295 294 295 295 295 294 295 297 294 294 293 293 292 291 290 290 290 289 289 289 288 287
290 289 288 287 287 286 284 284 285 285 285 285 286 286 287 288 289 289 288 288 288 287 286 286 287 287 288 289 289 289 289 289 291 292 292 291 292 293 293 291 291 291 291 290 289 288 287 287 287 286 286 286
289 288 287 287 286 286 284 283 283 283 283 283 283 283 284 285 286 286 287 287 287 286 286 285 286 286 286 287 287 287 288 288 290 291 291 291 289 290 293 291 291 290 289 288 287 286 285 285 285 285 285 285
288 288 288 286 286 284 284 283 283 282 282 282 282 283 283 283 284 284 285 285 285 285 285 285 285 285 285 285 286 286 286 285 286 289 290 289 289 290 291 292 291 290 288 287 286 284 284 284 283 283 282 282
289 287 286 286 285 283 282 282 282 281 281 282 282 282 282 282 283 283 283 284 284 284 283 284 284 284 284 284 284 283 283 284 284 285 287 289 291 290 289 290 291 290 290 287 284 284 284 282 282 281 281 280
290 289 289 286 284 283 283 282 281 280 280 281 281 281 281 281 281 281 282 283 283 284 283 283 283 283 283 283 282 282 282 282 282 283 284 287 287 290 289 287 289 289 290 287 284 283 282 282 283 282 282 281
287 287 286 285 284 282 280 281 281 280 280 281 280 280 280 281 281 281 281 281 282 282 282 282 282 282 282 282 283 282 281 281 281 281 281 282 284 284 285 285 285 285 285 287 287 287 283 281 281 282 281 281
285 284 283 283 282 281 281 280 280 280 281 281 280 279 279 279 280 280 280 280 280 280 280 281 280 280 280 281 282 282 280 279 279 279 279 280 281 282 282 282 281 281 282 283 287 283 286 285 285 281 281 279
284 283 282 281 281 281 281 281 281 280 279 279 279 279 278 278 278 279 278 279 279 279 279 279 279 279 279 279 279 280 279 277 276 276 276 277 278 279 280 278 277 278 278 278 278 283 286 284 284 285 281 278
284 284 283 282 281 281 281 280 280 279 278 278 277 276 277 277 278 278 277 278 278 278 278 277 277 277 277 277 278 277 277 276 276 275 275 275 276 277 278 278 277 276 278 276 277 276 276 279 284 284 281 282
285 284 285 285 285 285 283 280 278 278 278 277 277 277 276 276 276 276 276 276 276 276 277 277 276 276 276 276 275 275 275 274 274 273 274 274 275 275 277 278 277 276 276 278 277 276 277 277 277 279 283 283
Wind_Speed
14 14 15 13 13 13 13 13 15 15 16 15 15 15 16 15 14 15 16 17 18 16 15 14 13 11 10 10 9 8 10 12 12 12 11 12 14 16 15 14 14 14 14 13 13 12 11 9 9 8 8 8
13 13 14 13 12 12 13 14 13 12 13 12 12 13 16 16 15 16 17 18 17 18 17 14 12 10 11 10 9 9 10 11 12 12 12 13 15 16 15 15 15 14 14 14 13 12 11 9 10 9 9 9
10 13 13 13 12 12 12 13 12 11 12 13 13 13 14 15 15 14 14 17 17 17 16 13 12 10 11 11 10 10 11 11 13 13 13 14 15 15 15 16 15 15 14 13 13 11 9 9 9 8 9 8
11 11 14 13 14 14 14 14 12 12 12 12 14 16 15 15 14 13 13 15 15 16 14 12 11 10 11 12 12 11 12 12 13 15 14 15 15 15 15 16 16 15 14 13 12 10 8 7 7 8 7 9
14 12 14 12 13 14 15 15 15 16 15 13 13 15 15 13 10 11 10 11 13 15 13 12 11 10 11 12 12 12 12 12 14 14 13 13 13 14 16 16 16 15 13 13 12 9 8 8 8 7 7 8
9 10 14 14 12 12 14 16 17 15 13 13 11 12 11 7 7 8 8 9 11 13 14 12 11 11 12 13 13 11 12 14 13 13 13 13 14 13 10 11 9 10 12 12 10 8 8 8 7 7 7 8
5 8 9 10 10 8 13 15 15 13 14 13 12 9 7 7 6 7 8 7 8 10 13 12 11 11 11 13 14 14 15 14 14 14 14 14 13 11 9 7 6 6 6 7 9 9 8 7 7 7 8 8
9 10 8 9 8 8 10 11 9 10 9 9 10 10 9 7 6 7 8 12 16 14 10 9 11 11 11 11 11 13 10 12 13 14 13 12 11 8 5 6 6 5 6 6 6 7 7 7 7 7 7 7
10 10 11 10 9 10 11 8 8 8 8 7 8 7 6 7 7 7 7 7 7 7 7 7 7 7 6 6 7 7 6 6 6 6 6 6 6 6 6 7 6 6 6 6 6 7 7 7 7 7 7 7
11 11 11 12 11 10 10 10 10 9 8 8 8 7 8 8 8 5 5 6 7 6 7 7 6 6 5 6 6 6 6 6 6 5 5 6 6 6 6 7 6 6 6 7 7 7 7 7 7 7 7 7
5 5 7 11 13 12 14 10 11 10 9 9 9 8 8 9 7 6 6 6 7 7 6 6 6 6 6 6 5 5 6 6 5 5 6 6 6 6 7 8 7 7 7 7 8 7 7 7 7 7 7 7
7 5 7 7 8 9 11 10 11 11 12 13 12 10 7 7 7 8 7 7 6 5 5 6 6 6 6 6 5 5 5 6 6 6 6 7 7 8 7 8 7 7 8 7 7 8 7 8 7 7 7 7
4 4 5 10 9 8 11 11 10 11 11 11 11 12 11 9 8 7 7 7 7 7 7 7 7 6 6 6 6 6 6 6 7 7 7 7 8 7 7 7 7 7 7 7 7 7 8 8 8 7 7 7
3 4 5 9 10 8 9 8 9 10 10 10 11 11 11 9 9 9 9 8 8 9 8 7 7 7 6 6 6 6 6 5 6 6 6 6 7 8 7 7 7 7 7 7 7 7 7 8 7 7 7 7
3 2 1 3 5 7 8 8 7 7 8 9 10 11 12 12 10 10 9 9 10 9 9 8 8 8 7 7 7 6 7 6 7 6 6 7 7 7 7 7 7 7 8 7 7 6 7 7 7 7 7 7
5 5 4 5 5 1 5 6 6 5 4 6 7 9 11 11 10 9 9 10 9 10 9 9 8 8 8 8 7 7 7 7 7 7 6 7 7 7 7 7 7 7 7 7 7 7 7 7 7 7 7 7
7 7 6 6 5 6 5 5 6 6 4 4 5 5 6 7 8 7 8 7 8 9 8 8 8 7 6 6 6 6 8 8 8 8 7 6 6 7 7 7 7 7 7 7 6 6 7 7 7 7 7 7
7 8 7 6 6 6 6 6 7 7 6 5 5 5 5 6 8 7 6 7 6 6 7 7 7 7 6 5 6 6 7 7 7 8 8 6 6 7 8 7 7 7 8 7 6 6 7 7 7 7 8 8
7 8 8 7 7 8 6 6 7 6 6 6 5 5 6 7 5 7 7 6 6 6 6 6 5 6 5 5 6 7 7 7 7 9 9 7 7 6 6 7 7 7 7 7 7 6 6 7 7 8 8 8
10 10 8 9 8 8 8 9 9 8 7 6 6 6 6 7 7 6 7 6 5 5 5 5 5 4 4 3 4 5 6 6 7 6 7 7 8 9 8 8 8 7 8 8 8 7 7 7 7 8 8 8
11 9 9 11 10 10 9 9 9 8 7 8 9 8 6 7 6 7 8 7 7 6 6 5 6 5 5 3 3 4 5 6 5 5 5 4 4 6 8 8 9 8 8 8 9 8 8 7 7 8 7 8
9 9 9 9 9 11 11 12 9 7 6 8 8 8 8 7 6 7 7 8 8 8 7 6 6 6 6 5 5 5 6 5 5 5 5 6 4 5 7 7 8 9 8 8 8 9 9 8 8 8 8 7
11 11 10 9 10 10 10 8 7 8 8 9 10 9 7 7 6 7 7 6 8 8 7 6 6 6 6 5 5 5 6 6 6 6 5 6 6 5 6 7 8 9 10 10 9 10 10 9 10 8 8 7
10 8 7 8 7 9 8 8 8 7 8 8 10 9 8 7 6 7 8 7 7 8 7 7 6 7 7 6 6 7 7 6 5 6 7 7 7 9 8 8 9 10 11 12 12 11 10 10 10 10 8 8
7 8 9 7 7 9 7 8 8 9 8 8 8 9 9 9 7 7 8 8 7 6 8 7 7 6 6 6 7 7 7 6 7 6 5 5 5 8 10 8 8 9 10 12 11 9 10 9 9 9 9 9
6 4 5 7 8 9 8 7 7 6 7 8 8 9 8 7 8 8 9 7 7 5 6 7 7 7 6 6 7 8 7 8 7 7 6 4 6 4 7 7 5 1 3 6 8 11 8 7 7 7 8 8
6 6 7 8 8 8 8 8 8 8 8 8 9 10 10 9 7 6 7 8 8 7 6 7 8 7 5 5 4 6 7 7 8 6 7 7 4 5 5 6 5 4 6 2 7 7 9 7 6 4 6 8
9 11 12 12 11 11 9 9 10 11 9 9 9 10 10 9 9 9 8 7 7 6 6 6 8 7 7 6 5 6 7 7 8 7 7 7 6 3 4 2 3 7 6 5 4 7 2 6 5 6 6 6
10 11 12 12 13 13 13 10 8 8 9 8 8 9 9 9 10 9 9 10 10 9 9 8 7 8 8 7 6 5 6 8 7 7 6 7 7 7 2 2 3 5 7 7 6 3 3 3 4 2 8 9
6 7 9 10 10 10 9 10 8 7 7 6 6 7 7 9 10 9 10 9 8 8 7 8 7 8 9 8 7 6 6 7 7 9 9 7 5 6 6 3 3 2 4 6 7 8 5 4 1 3 7 6
6 7 7 8 8 9 9 11 7 7 7 7 6 7 7 7 8 9 9 10 9 8 7 7 7 8 9 9 7 6 6 7 8 7 7 5 6 6 4 3 4 3 2 2 6 6 6 6 4 5 4 4
Wind_Direction
165 156 161 167 168 175 170 161 166 164 161 163 159 150 143 138 135 125 119 113 109 111 116 119 123 125 125 125 126 121 131 130 125 127 123 129 122 119 116 104 97 94 90 85 82 76 71 59 56 45 74 82
162 158 162 164 166 166 162 166 161 157 158 153 150 144 139 132 129 125 120 116 111 111 111 115 123 125 127 129 130 130 132 133 129 123 119 120 118 117 116 102 97 91 87 84 80 76 72 63 63 54 73 87
164 160 159 161 160 160 162 160 153 154 150 144 137 128 124 121 121 118 117 116 115 114 113 113 117 120 128 131 132 131 135 133 131 121 114 115 115 118 108 96 90 87 84 81 79 76 74 74 72 69 84 82
161 162 157 160 163 157 154 153 141 130 119 118 122 120 117 116 114 112 111 111 113 110 112 118 118 120 126 127 128 132 131 132 131 112 117 112 112 108 93 86 81 80 79 77 75 73 65 68 78 84 82 79
173 163 162 161 157 156 150 143 131 124 120 113 116 122 120 119 117 118 119 120 120 116 113 105 110 115 119 123 125 132 135 120 122 115 114 106 101 92 89 84 77 72 73 71 71 64 63 71 78 72 75 76
181 167 170 167 161 156 146 140 136 134 133 128 123 119 120 119 124 126 128 122 122 115 116 111 109 112 116 120 120 118 120 104 115 117 107 103 96 89 87 100 102 89 75 69 64 58 63 76 75 69 72 75
173 167 177 159 158 153 147 143 144 139 139 140 135 135 128 123 126 118 124 130 103 101 96 93 87 86 93 101 100 97 95 101 106 99 100 96 92 87 87 88 95 97 101 90 77 74 72 74 70 69 70 74
181 178 170 162 152 154 142 143 135 134 133 137 140 139 140 134 117 108 108 103 104 103 104 93 85 83 81 79 85 94 91 90 91 93 91 91 92 90 86 94 92 91 92 85 81 81 80 78 72 69 69 72
181 174 171 159 157 153 145 133 132 130 123 119 117 111 113 117 117 120 127 123 111 109 112 117 120 117 117 117 112 112 108 112 111 107 105 97 93 93 93 96 92 95 95 90 87 85 84 82 78 75 70 70
180 178 166 165 160 156 144 147 145 142 135 131 130 126 124 120 116 108 110 106 105 114 119 122 124 120 121 123 125 130 121 119 112 106 104 99 99 96 93 89 89 86 91 93 90 88 82 82 81 77 73 71
165 199 165 162 159 152 161 156 151 151 145 140 135 133 141 135 132 126 126 119 124 127 129 126 131 127 128 127 123 119 121 110 106 108 106 100 96 99 97 93 89 86 86 86 90 87 83 82 83 81 75 73
156 155 155 153 158 163 152 152 159 161 156 149 147 143 149 136 139 138 134 136 133 130 131 134 131 131 129 127 124 125 120 120 115 111 108 107 107 106 98 98 98 96 90 89 91 88 84 85 83 80 77 74
148 146 157 160 167 172 164 163 160 160 155 156 152 152 151 147 142 140 138 143 142 142 137 134 134 133 130 129 130 131 123 123 124 121 124 124 122 115 112 108 102 99 96 95 92 93 90 89 86 83 82 78
145 158 167 174 175 168 172 163 153 152 157 160 154 152 152 150 145 148 149 147 149 146 143 140 136 134 134 133 136 133 129 125 122 121 114 111 115 116 117 111 104 104 98 94 93 95 96 93 92 89 87 82
108 59 57 205 188 160 174 158 135 145 157 157 157 155 153 156 155 152 154 154 152 146 144 142 142 140 138 136 135 134 125 124 122 124 122 124 122 118 114 110 108 107 104 98 92 90 90 91 91 86 80 77
27 37 35 26 353 235 137 129 143 122 101 137 146 152 156 155 155 157 153 154 150 147 148 148 144 144 146 140 138 136 134 130 125 119 110 106 108 113 115 113 109 106 105 98 92 88 84 81 84 82 80 77
32 15 25 27 26 359 11 79 95 76 54 44 70 92 121 135 136 142 146 147 142 143 145 142 141 140 135 135 136 133 127 122 121 118 115 104 108 105 104 99 99 98 96 94 89 84 83 83 79 77 80 75
52 40 14 27 26 23 8 54 64 49 46 46 47 55 43 101 127 127 119 129 131 136 134 135 135 134 132 129 129 126 129 130 132 127 122 123 115 114 114 111 107 105 99 96 91 83 77 77 77 75 71 68
103 117 83 21 44 20 22 28 50 43 32 43 39 52 47 19 51 100 112 117 132 127 128 120 112 113 120 129 133 134 136 133 132 130 132 137 123 114 106 105 99 99 97 95 87 81 81 81 81 76 75 70
77 58 69 105 61 30 25 34 43 51 47 38 32 39 51 46 31 37 60 60 58 89 86 99 97 81 78 99 133 128 122 126 127 126 126 126 132 126 121 116 106 100 98 90 84 77 77 78 78 79 74 69
78 79 80 53 63 74 35 38 38 37 44 53 46 32 38 44 48 46 52 53 44 62 66 66 72 65 54 47 77 91 98 96 99 103 102 94 82 116 122 114 110 105 98 92 84 80 75 71 72 71 69 68
79 85 77 66 68 65 65 53 36 20 24 57 53 44 32 26 47 51 54 63 63 64 52 54 65 69 52 52 59 56 48 61 76 88 105 109 78 84 110 111 112 106 97 92 87 78 71 67 67 67 67 70
95 88 80 81 76 70 69 69 57 32 24 52 61 51 31 20 38 50 50 58 80 84 70 55 44 52 46 41 54 68 77 70 67 84 91 106 99 69 89 110 110 109 105 96 91 82 72 69 67 64 66 68
107 92 87 95 81 70 68 71 73 63 45 38 55 49 41 30 21 45 56 50 58 84 89 82 59 47 41 44 63 73 64 52 48 63 86 89 105 106 95 99 109 116 112 100 92 86 78 71 69 65 67 67
123 121 114 94 92 97 86 78 74 68 70 64 59 56 53 43 28 21 60 59 47 66 86 83 79 59 52 49 60 62 59 52 47 38 64 99 106 114 113 104 112 117 121 116 96 89 88 83 70 75 73 71
117 104 116 125 122 117 106 97 85 74 59 68 64 65 69 59 45 38 49 59 66 48 71 92 88 82 69 67 73 75 67 59 46 35 36 66 101 73 110 113 102 97 151 132 136 133 122 95 95 85 78 73
111 101 95 111 117 113 95 73 82 88 89 81 75 66 58 57 65 54 41 48 56 64 55 75 83 79 73 68 81 85 71 62 54 33 34 28 63 90 53 86 35 14 340 163 137 129 123 149 135 145 103 82
91 96 95 92 100 97 98 107 96 88 82 79 76 66 65 62 58 61 68 52 54 58 44 60 85 83 74 68 51 73 83 65 61 44 32 29 34 36 121 67 45 13 0 350 155 165 204 170 163 151 166 116
112 111 104 104 100 102 101 95 96 89 77 73 72 71 57 59 65 66 61 66 66 68 67 59 67 81 75 64 45 50 74 79 72 63 53 40 49 35 47 82 66 29 14 24 10 323 142 157 202 204 121 123
121 127 132 133 133 132 128 123 124 116 114 98 75 72 77 65 64 70 69 62 58 61 65 67 55 70 78 65 58 52 59 72 72 56 51 40 49 56 31 81 89 77 54 46 25 35 28 355 348 124 155 169
126 131 139 142 135 133 133 124 95 91 93 97 90 89 76 69 56 52 61 62 59 55 57 68 75 74 78 79 68 60 64 68 66 61 56 49 58 55 49 50 113 105 107 87 52 32 36 47 49 2 143 189